Date String (YYYY-MM-DD hh:mm:ss) UTC,Instrument flags,absolute air pressure of the measurement (hPa),sample flow rate (lpm),inlet stack bypass flow (lpm),air temperature of the measurement (°C),ambient temperature measured by the external sensor (°C),aerosol sample conditioner tube jacket temperature (°C),OPC LED temperature (°C),internal box temperature (°C),relative humidity of the measurement (%),span deviation,mass concentration of particles derived from Lorenz-Mie calculation of OPC scattering (μg/m³),mass concentration of particles derived from Lorenz-Mie calculation of OPC scattering (μg/m³),mass concentration of particles derived from Lorenz-Mie calculation of OPC scattering (μg/m³)
DateTimeUTC,F1_M11,P_M11,Q1_M11,Q2_M11,T1_M11,T2_M11,T3_M11,T4_M11,T5_M11,U1_M11,ZSPAN_M11,X2_M11,X0_M11,X1_M11
2023-06-17 00:00:00,SystemResetWarning,0833.7,5.00,000.00,030.3,028.8,000.0,038.9,031.9,29.0,0000.0,0001.63,0002.59,0001.29
2023-06-17 00:01:00,SystemResetWarning,0833.7,5.01,000.00,030.3,028.8,000.0,038.9,031.9,29.0,0000.0,0001.59,0002.45,0001.27
2023-06-17 00:02:00,SystemResetWarning,0833.6,5.00,000.00,030.3,028.8,000.0,038.9,031.8,29.1,0000.0,0001.56,0002.33,0001.26
2023-06-17 00:03:00,SystemResetWarning,0833.6,5.00,000.00,030.4,028.8,000.0,038.9,031.9,29.1,0000.0,0001.56,0002.97,0001.27
2023-06-17 00:04:00,SystemResetWarning,0833.6,5.00,000.00,030.4,028.8,000.0,038.9,031.9,29.0,0000.0,0001.53,0003.27,0001.26
2023-06-17 00:05:00,SystemResetWarning,0833.6,5.00,000.00,030.4,028.8,000.0,038.9,031.9,29.1,0000.0,0001.51,0003.19,0001.24
2023-06-17 00:06:00,SystemResetWarning,0833.6,5.01,000.00,030.4,028.8,000.0,038.9,031.9,29.1,0000.0,0001.49,0003.16,0001.23
2023-06-17 00:07:00,SystemResetWarning,0833.6,5.00,000.00,030.4,028.8,000.0,038.9,031.9,29.1,0000.0,0001.51,0003.29,0001.22
2023-06-17 00:08:00,SystemResetWarning,0833.6,5.00,000.00,030.4,028.8,000.0,038.9,031.9,29.0,0000.0,0001.49,0003.28,0001.21
2023-06-17 00:09:00,SystemResetWarning,0833.6,4.99,000.00,030.4,028.8,000.0,039.0,031.9,29.0,0000.0,0001.46,0003.23,0001.20
2023-06-17 00:10:00,SystemResetWarning,0833.7,5.00,000.00,030.4,028.8,000.0,039.0,031.9,29.0,0000.0,0001.47,0003.28,0001.19
2023-06-17 00:11:00,SystemResetWarning,0833.7,5.00,000.00,030.4,028.8,000.0,039.0,031.9,29.1,0000.0,0001.52,0003.39,0001.19
2023-06-17 00:12:00,SystemResetWarning,0833.7,4.99,000.00,030.4,028.9,000.0,039.0,031.9,29.1,0000.0,0001.53,0003.44,0001.20
2023-06-17 00:13:00,SystemResetWarning,0833.7,4.99,000.00,030.4,028.9,000.0,039.0,032.0,29.1,0000.0,0001.54,0003.45,0001.19
2023-06-17 00:14:00,SystemResetWarning,0833.7,5.00,000.00,030.4,028.9,000.0,039.0,031.9,28.9,0000.0,0001.54,0002.86,0001.19
2023-06-17 00:15:00,SystemResetWarning,0833.7,5.00,000.00,030.4,028.9,000.0,039.0,031.9,28.7,0000.0,0001.58,0002.48,0001.23
2023-06-17 00:16:00,SystemResetWarning,0833.7,5.00,000.00,030.4,028.9,000.0,039.0,031.9,28.6,0000.0,0001.65,0002.55,0001.30
2023-06-17 00:17:00,SystemResetWarning,0833.8,5.00,000.00,030.5,028.9,000.0,039.0,032.0,28.5,0000.0,0001.70,0002.50,0001.37
2023-06-17 00:18:00,SystemResetWarning,0833.7,5.00,000.00,030.5,028.9,000.0,039.0,032.0,28.6,0000.0,0001.74,0002.43,0001.43
2023-06-17 00:19:00,SystemResetWarning,0833.8,5.00,000.00,030.5,028.9,000.0,039.0,032.0,28.6,0000.0,0001.82,0002.50,0001.51
2023-06-17 00:20:00,SystemResetWarning,0833.8,5.00,000.00,030.5,028.9,000.0,039.0,032.0,28.5,0000.0,0001.89,0002.59,0001.57
2023-06-17 00:21:00,SystemResetWarning,0833.7,5.00,000.00,030.5,028.9,000.0,039.0,032.0,28.6,0000.0,0002.00,0002.77,0001.65
2023-06-17 00:22:00,SystemResetWarning,0833.7,5.01,000.00,030.5,028.9,000.0,039.1,032.0,28.6,0000.0,0002.11,0003.15,0001.73
2023-06-17 00:23:00,SystemResetWarning,0833.8,5.00,000.00,030.5,028.9,000.0,039.1,032.0,28.6,0000.0,0002.23,0003.39,0001.82
2023-06-17 00:24:00,SystemResetWarning,0833.7,5.00,000.00,030.5,028.9,000.0,039.1,032.0,28.5,0000.0,0002.32,0003.53,0001.90
2023-06-17 00:25:00,SystemResetWarning,0833.7,5.01,000.00,030.5,028.9,000.0,039.1,032.0,28.6,0000.0,0002.39,0003.63,0001.96
2023-06-17 00:26:00,SystemResetWarning,0833.7,5.00,000.00,030.5,028.9,000.0,039.1,032.0,28.6,0000.0,0002.43,0003.68,0001.98
2023-06-17 00:27:00,SystemResetWarning,0833.7,4.99,000.00,030.5,027.3,000.0,039.0,032.0,28.6,0000.0,0002.42,0003.64,0001.99
2023-06-17 00:28:00,SystemResetWarning,0833.7,5.00,000.00,030.5,025.3,000.0,039.0,031.9,28.6,0000.0,0002.44,0003.77,0002.00
2023-06-17 00:29:00,SystemResetWarning,0833.7,5.00,000.00,030.4,024.8,000.0,038.9,031.5,28.7,0000.0,0002.53,0004.12,0002.02
2023-06-17 00:30:00,SystemResetWarning,0833.7,5.00,000.00,030.2,025.1,000.0,038.9,031.3,29.1,0000.0,0002.53,0004.51,0002.02
2023-06-17 00:31:00,SystemResetWarning,0833.7,5.01,000.00,030.2,025.6,000.0,038.9,031.3,29.4,0000.0,0002.56,0004.57,0002.04
2023-06-17 00:32:00,SystemResetWarning,0833.7,5.00,000.00,030.1,026.1,000.0,038.8,031.3,29.5,0000.0,0002.54,0004.51,0002.04
2023-06-17 00:33:00,SystemResetWarning,0833.7,5.00,000.00,030.1,026.5,000.0,038.8,031.3,29.5,0000.0,0002.48,0004.20,0002.02
2023-06-17 00:34:00,SystemResetWarning,0833.7,5.00,000.00,030.0,026.8,000.0,038.8,031.3,29.4,0000.0,0002.41,0003.97,0001.99
2023-06-17 00:35:00,SystemResetWarning,0833.7,5.01,000.00,030.0,027.1,000.0,038.7,031.3,29.4,0000.0,0002.41,0003.99,0001.98
2023-06-17 00:36:00,SystemResetWarning,0833.7,5.01,000.00,030.0,027.4,000.0,038.7,031.3,29.4,0000.0,0002.38,0004.07,0001.95
2023-06-17 00:37:00,SystemResetWarning,0833.7,4.99,000.00,030.0,027.6,000.0,038.7,031.4,29.5,0000.0,0002.35,0004.03,0001.94
2023-06-17 00:38:00,SystemResetWarning,0833.7,5.00,000.00,030.0,027.8,000.0,038.7,031.4,29.5,0000.0,0002.32,0004.03,0001.92
2023-06-17 00:39:00,SystemResetWarning,0833.7,5.00,000.00,030.0,027.9,000.0,038.7,031.4,29.4,0000.0,0002.30,0004.04,0001.90
2023-06-17 00:40:00,SystemResetWarning,0833.6,5.00,000.00,030.0,028.0,000.0,038.7,031.4,29.4,0000.0,0002.23,0003.77,0001.86
2023-06-17 00:41:00,SystemResetWarning,0833.6,5.00,000.00,030.0,028.1,000.0,038.7,031.5,29.4,0000.0,0002.20,0003.43,0001.83
2023-06-17 00:42:00,SystemResetWarning,0833.6,5.00,000.00,030.0,028.2,000.0,038.7,031.5,29.5,0000.0,0002.15,0003.36,0001.80
2023-06-17 00:43:00,SystemResetWarning,0833.6,5.00,000.00,030.0,028.2,000.0,038.7,031.5,29.5,0000.0,0002.13,0004.15,0001.76
2023-06-17 00:44:00,SystemResetWarning,0833.6,4.99,000.00,030.0,028.3,000.0,038.7,031.5,29.5,0000.0,0002.11,0004.33,0001.73
2023-06-17 00:45:00,SystemResetWarning,0833.7,4.99,000.00,030.1,028.3,000.0,038.6,031.5,29.4,0000.0,0002.11,0004.32,0001.72
2023-06-17 00:46:00,SystemResetWarning,0833.7,4.99,000.00,030.1,028.4,000.0,038.6,031.5,29.4,0000.0,0002.05,0004.23,0001.69
2023-06-17 00:47:00,SystemResetWarning,0833.7,5.00,000.00,030.1,028.4,000.0,038.7,031.6,29.4,0000.0,0001.99,0003.99,0001.67
2023-06-17 00:48:00,SystemResetWarning,0833.7,5.01,000.00,030.1,028.4,000.0,038.7,031.6,29.4,0000.0,0001.94,0003.87,0001.64
2023-06-17 00:49:00,SystemResetWarning,0833.7,5.01,000.00,030.1,028.5,000.0,038.7,031.6,29.3,0000.0,0001.91,0003.79,0001.61
2023-06-17 00:50:00,SystemResetWarning,0833.7,5.00,000.00,030.1,028.5,000.0,038.7,031.6,29.4,0000.0,0001.91,0003.73,0001.60
2023-06-17 00:51:00,SystemResetWarning,0833.7,4.99,000.00,030.1,028.5,000.0,038.7,031.6,29.4,0000.0,0001.90,0004.16,0001.59
2023-06-17 00:52:00,SystemResetWarning,0833.7,4.99,000.00,030.1,028.5,000.0,038.7,031.6,29.3,0000.0,0001.88,0004.45,0001.58
2023-06-17 00:53:00,SystemResetWarning,0833.7,5.00,000.00,030.1,028.5,000.0,038.7,031.6,29.3,0000.0,0001.84,0004.29,0001.56
2023-06-17 00:54:00,SystemResetWarning,0833.7,5.01,000.00,030.1,028.6,000.0,038.7,031.7,29.3,0000.0,0001.78,0003.57,0001.54
2023-06-17 00:55:00,SystemResetWarning,0833.7,5.01,000.00,030.2,028.6,000.0,038.7,031.7,29.4,0000.0,0001.77,0003.11,0001.51
2023-06-17 00:56:00,SystemResetWarning,0833.7,5.00,000.00,030.2,028.6,000.0,038.7,031.7,29.2,0000.0,0001.74,0003.10,0001.48
2023-06-17 00:57:00,SystemResetWarning,0833.7,5.00,000.00,030.2,028.6,000.0,038.7,031.7,29.1,0000.0,0001.74,0003.10,0001.47
2023-06-17 00:58:00,SystemResetWarning,0833.7,5.00,000.00,030.2,028.7,000.0,038.7,031.7,29.0,0000.0,0001.74,0003.21,0001.47
2023-06-17 00:59:00,SystemResetWarning,0833.7,5.00,000.00,030.2,028.7,000.0,038.8,031.7,28.9,0000.0,0001.77,0003.30,0001.47
